TIME,DELAY(SENSOR),PRES,T(CTD),SAL,OXYGEN,RAWTEMP,T(OPTODE),TCPHASE,TURBIDITY,TURBIDITY_GAIN,FLUOR,BETA,CDOM,ED411.5,ED443.8,ED489.6,PAR,COMP,TILT,TILTY(TILT),CHECK
1341782460,6469,250.4199981689453000,4.9130997657775880,34.9859008789062500,350.4140930175781000,761.4760131835938000,4.8846111297607420,34.0898590087890600,16,3,48,109,62,2147246687,2147558948,2147570504,2147362678,2334,0,-12,7680
1341782521,6467,247.0899963378906200,4.9124999046325680,34.9864006042480500,350.3467102050781000,761.4771118164062000,4.8845729827880860,34.0921592712402340,16,3,49,101,64,2147244675,2147559464,2147570706,2147363935,2025,0,-12,43083
1341782582,6503,243.6499938964843800,4.9124999046325680,34.9860000610351560,350.4798889160156000,761.4752197265625000,4.8846402168273930,34.0876007080078100,16,3,50,103,64,2147244118,2147559158,2147569659,2147362697,1785,0,-12,27479
1341782643,6468,240.1900024414062500,4.9123001098632810,34.9860000610351560,350.3146057128906000,761.4738769531250000,4.8846840858459470,34.0932617187500000,16,3,49,104,64,2147243761,2147559346,2147570139,2147362742,1531,0,-12,60258
1341782704,6466,236.7200012207031200,4.9124999046325680,34.9855003356933600,350.4190063476562500,761.4832763671875000,4.8843522071838380,34.0899505615234400,16,3,48,104,63,2147243963,2147559986,2147566719,2147361842,1243,0,-11,29160
1341782765,6468,233.2700042724609400,4.9119000434875490,34.9858016967773440,350.3724060058594000,761.4874267578125000,4.8842120170593260,34.0912284851074200,16,3,48,104,64,2147249452,2147560136,2147570202,2147361906,901,0,-12,33868
1341782826,6469,229.8200073242187500,4.9113001823425290,34.9861984252929700,350.3770141601562500,761.4926757812500000,4.8840260505676270,34.0910797119140600,16,3,49,104,64,2147245257,2147559318,2147568227,2147364877,505,0,-12,15010
1341782887,6467,226.3999938964843800,4.9112000465393070,34.9860992431640600,350.3218078613281000,761.4995117187500000,4.8837871551513670,34.0930099487304700,16,3,48,108,64,2147245786,2147558619,2147569682,2147365508,47,0,-12,50428
1341782948,6468,223.0399932861328000,4.9106998443603520,34.9864006042480500,350.3666992187500000,761.5070190429688000,4.8835239410400390,34.0920600891113300,53,3,50,103,64,2147246664,2147557261,2147570445,2147359688,3135,0,-12,23157
1341783009,6467,219.6999969482422000,4.9109001159667970,34.9860000610351560,350.4859924316406000,761.5131835937500000,4.8833050727844240,34.0879211425781250,16,3,48,111,65,2147244722,2147559702,2147567729,2147360978,2823,0,-12,49259
1341783072,6468,216.2899932861328000,4.9102997779846190,34.9863014221191400,350.4920043945312500,761.5208129882812000,4.8830389976501465,34.0881500244140600,16,3,50,108,64,2147246235,2147558344,2147569142,2147363629,2538,0,-12,41199
1341783133,6467,213.0399932861328000,4.9102001190185550,34.9860992431640600,350.4872131347656000,761.5264282226562000,4.8828411102294920,34.0883903503418000,16,3,48,102,64,2147245686,2147557485,2147567899,2147364543,2367,0,-12,58837
1341783196,6469,209.7700042724609400,4.9098000526428220,34.9864006042480500,350.5598144531250000,761.5336914062500000,4.8825888633728030,34.0861015319824200,16,3,48,107,63,2147243981,2147558938,2147569124,2147365741,2165,0,-12,60708
1341783257,6469,206.6699981689453000,4.9096999168396000,34.9864006042480500,350.5273132324219000,761.5341796875000000,4.8825697898864750,34.0868797302246100,16,3,50,108,64,2147244319,2147558029,2147569050,2147364411,1948,0,-12,11590
1341783320,6468,203.5299987792968800,4.9099998474121090,34.9856986999511700,350.5481872558594000,761.5435791015625000,4.8822398185729980,34.0866203308105500,16,3,48,102,64,2147242052,2147560113,2147571359,2147363862,1702,0,-12,34315
1341783381,6467,200.6100006103515600,4.9093999862670900,34.9861984252929700,350.4964904785156000,761.5471801757812000,4.8821182250976560,34.0882606506347660,16,3,48,105,64,2147242111,2147561526,2147571629,2147364154,1436,0,-12,6127
1341783444,6469,197.6100006103515600,4.9092998504638670,34.9861984252929700,350.5463867187500000,761.5499267578125000,4.8820209503173830,34.0868606567382800,16,3,48,106,65,2147241649,2147559090,2147571885,2147363510,1176,0,-12,17150
1341783505,6468,194.8300018310547000,4.9092998504638670,34.9860000610351560,350.4569091796875000,761.5549926757812000,4.8818421363830570,34.0898399353027340,16,3,48,104,64,2147245681,2147563606,2147570893,2147361686,892,0,-12,42922
1341783568,6468,191.9900054931640600,4.9089999198913570,34.9861984252929700,350.4276123046875000,761.5604248046875000,4.8816552162170410,34.0908584594726560,16,3,48,102,64,2147244374,2147560118,2147568708,2147360876,601,0,-12,52292
1341783629,6468,189.3399963378906200,4.9089999198913570,34.9860992431640600,350.5935974121094000,761.5632934570312000,4.8815541267395020,34.0853385925293000,16,3,48,106,64,2147243610,2147556145,2147568739,2147363546,231,0,-12,14329
1341783692,6468,186.6399993896484400,4.9085998535156250,34.9861984252929700,350.5039978027344000,761.5720825195312000,4.8812432289123535,34.0884399414062500,16,3,48,105,64,2147243583,2147556634,2147573366,2147363807,3304,0,-12,10817
1341783753,6466,184.0200042724609400,4.9085001945495605,34.9863014221191400,350.4631958007812500,761.5720214843750000,4.8812470436096190,34.0901603698730500,16,3,49,106,64,2147245978,2147557810,2147570550,2147361663,3087,0,-12,19191
1341783816,6467,181.3399963378906200,4.9084000587463380,34.9861984252929700,350.4142150878906000,761.5778198242188000,4.8810439109802250,34.0915298461914060,16,3,48,108,64,2147243990,2147559977,2147570701,2147362742,2810,0,-12,830
1341783877,6468,178.7599945068359400,4.9085001945495605,34.9859008789062500,350.4166870117187500,761.5784301757812000,4.8810229301452640,34.0915298461914060,16,3,48,109,65,2147242943,2147558006,2147571190,2147364969,2557,0,-12,3175
1341783940,6466,176.0599975585937500,4.9084000587463380,34.9860992431640600,350.4981079101562500,761.5809936523438000,4.8809337615966800,34.0888710021972660,16,3,50,106,62,2147241869,2147560667,2147571135,2147364461,2349,0,-12,32833
1341784001,6468,173.3999938964843800,4.9084000587463380,34.9860000610351560,350.3635864257812500,761.5822753906250000,4.8808841705322270,34.0935516357421900,16,3,50,106,64,2147244616,2147558454,2147569553,2147361165,2144,0,-12,23093
1341784064,6467,170.6199951171875000,4.9078998565673830,34.9864997863769500,350.2561035156250000,761.5856933593750000,4.8807678222656250,34.0972785949707000,16,3,49,110,64,2147245425,2147558454,2147572035,2147361965,1894,0,-12,49635
1341784125,6468,167.8600006103515600,4.9078001976013180,34.9866981506347660,350.3104858398437500,761.5833740234375000,4.8808460235595700,34.0953483581543000,16,3,49,106,64,2147244026,2147557928,2147569640,2147361092,1652,0,-12,23812
1341784188,6466,164.8999938964843800,4.9085001945495605,34.9864006042480500,350.1946105957031000,761.5659790039062000,4.8814578056335450,34.0990180969238300,16,3,48,117,64,2147248036,2147559249,2147568918,2147361356,1432,0,-12,19883
1341784249,6468,161.9600067138672000,4.9088001251220700,34.9859008789062500,350.0606079101562500,761.5682983398438000,4.8813757896423340,34.1035194396972660,16,3,49,110,65,2147244991,2147558774,2147571698,2147361897,1123,0,-12,17157
1341784312,6467,158.8800048828125000,4.9084000587463380,34.9860992431640600,349.9588928222656000,761.5714111328125000,4.8812708854675290,34.1067695617675800,16,3,48,111,64,2147246655,2147556991,2147570043,2147363332,851,0,-12,42030
1341784373,6467,155.8699951171875000,4.9084000587463380,34.9863014221191400,349.9052124023437500,761.5734863281250000,4.8811969757080080,34.1089591979980500,16,3,48,112,64,2147244795,2147558097,2147571574,2147363839,561,0,-12,15599
1341784436,6469,152.8099975585937500,4.9085001945495605,34.9858016967773440,350.0711975097656000,761.5759277343750000,4.8811111450195310,34.1032905578613300,16,3,50,114,64,2147244507,2147558161,2147572899,2147363935,244,0,-12,57392
1341784497,6468,149.9100036621093800,4.9085998535156250,34.9860992431640600,349.9926147460937500,761.5681152343750000,4.8813819885253910,34.1056594848632800,16,3,50,112,63,2147246523,2147557233,2147571689,2147361855,3486,0,-12,16074
1341784560,6467,146.9900054931640600,4.9088997840881350,34.9855995178222660,349.8670959472656000,761.5687866210938000,4.8813610076904300,34.1100807189941400,16,3,48,113,64,2147244031,2147559432,2147570321,2147361609,3031,0,-12,28168
1341784621,6466,144.2200012207031200,4.9088001251220700,34.9860000610351560,349.7521972656250000,761.5598144531250000,4.8816761970520020,34.1136207580566400,16,3,48,112,64,2147244397,2147559514,2147572795,2147363547,2734,0,-12,7258
1341784684,6466,141.4299926757812500,4.9089999198913570,34.9860000610351560,349.8916015625000000,761.5546875000000000,4.8818531036376950,34.1088104248046900,16,3,49,115,64,2147244621,2147556241,2147573403,2147364753,2517,0,-12,56920
1341784745,6469,138.8200073242187500,4.9093999862670900,34.9858016967773440,349.6570129394531000,761.5463867187500000,4.8821411132812500,34.1167106628418000,16,3,50,117,64,2147242961,2147559551,2147570528,2147360406,2356,0,-12,14853
1341784808,6469,136.2100067138672000,4.9098000526428220,34.9855995178222660,349.7030944824219000,761.5433959960938000,4.8822498321533200,34.1148796081543000,16,3,50,117,65,2147246541,2147558980,2147574248,2147363126,2185,0,-12,40748
1341784869,6468,133.7799987792968800,4.9093999862670900,34.9860000610351560,349.7390136718750000,761.5426025390625000,4.8822770118713380,34.1136589050293000,21,3,50,121,64,2147246481,2147560908,2147572507,2147361827,1991,0,-11,4253
1341784932,6504,131.3300018310547000,4.9098000526428220,34.9855995178222660,349.8257141113281000,761.5427856445312000,4.8822689056396480,34.1109199523925800,16,3,49,118,65,2147246216,2147557778,2147576657,2147362130,1807,0,-12,413
1341784993,6467,129.0399932861328000,4.9095001220703125,34.9859008789062500,349.6058044433594000,761.5435180664062000,4.8822441101074220,34.1185684204101560,16,3,50,119,64,2147246230,2147557956,2147576173,2147361192,1605,0,-11,1157
1341785084,6466,124.9899978637695300,4.9102001190185550,34.9856986999511700,349.5874023437500000,761.5388183593750000,4.8824081420898440,34.1189994812011700,16,3,50,128,64,2147244434,2147557238,2147574409,2147361654,1171,0,-12,42017
1341785145,6468,121.4700012207031200,4.9121999740600590,34.9854011535644500,349.5582885742187500,761.4763183593750000,4.8845977783203125,34.1183891296386700,16,3,50,125,64,2147243793,2147561375,2147576173,2147361722,858,0,-12,25762
1341785208,6468,117.8399963378906200,4.9128999710083010,34.9859008789062500,349.5154113769531000,761.4536132812500000,4.8853912353515625,34.1196212768554700,16,3,50,123,63,2147243217,2147559428,2147577097,2147365946,443,0,-12,36110
1341785269,6467,114.4599990844726600,4.9145998954772950,34.9854011535644500,349.5022888183594000,761.4218139648438000,4.8865089416503910,34.1194686889648440,16,3,50,120,64,2147244150,2147560941,2147578906,2147365370,115,0,-12,30376
1341785332,6466,111.0899963378906200,4.9168000221252440,34.9850997924804700,349.4956054687500000,761.3602905273438000,4.8886599540710450,34.1184616088867200,16,3,50,118,64,2147243564,2147557421,2147579249,2147362819,3174,0,-12,15243
1341785393,6504,107.9400024414062500,4.9189000129699710,34.9852981567382800,349.3438110351562500,761.2775268554688000,4.8915600776672360,34.1219482421875000,16,3,50,119,65,2147245019,2147562513,2147578600,2147363913,2699,0,-12,58341
1341785456,6468,104.6999969482421900,4.9221000671386720,34.9851989746093750,349.3210144042969000,761.1912841796875000,4.8945751190185550,34.1210899353027340,16,3,50,122,64,2147247172,2147564397,2147577617,2147362605,2338,0,-12,39121
1341785517,6465,101.5800018310546900,4.9295001029968260,34.9849014282226560,349.1626892089844000,760.9744873046875000,4.9021658897399900,34.1222190856933600,16,3,50,125,64,2147246665,2147557315,2147577316,2147366221,2136,0,-12,40571
1341785580,6468,98.2300033569336000,4.9312000274658200,34.9852981567382800,349.1411132812500000,760.9204101562500000,4.9040579795837400,34.1218605041503900,16,3,50,122,64,2147242655,2147562984,2147575058,2147366724,1971,0,-12,15787
1341785641,6503,94.9100036621093800,4.9333000183105470,34.9851989746093750,349.1057128906250000,760.8789062500000000,4.9055118560791020,34.1222190856933600,15,3,50,122,65,2147240977,2147561709,2147579958,2147365503,1802,0,-12,26609
1341785704,6466,91.1900024414062500,4.9333000183105470,34.9852981567382800,349.1274108886719000,760.8812866210938000,4.9054260253906250,34.1213188171386700,13,3,50,122,65,2147244781,2147558147,2147574175,2147365087,1549,0,-12,51629
1341785765,6468,87.3700027465820300,4.9491000175476070,34.9847984313964840,348.9927978515625000,760.4691772460938000,4.9198508262634280,34.1177902221679700,16,3,50,125,64,2147243103,2147560122,2147576059,2147364818,1253,0,-12,62156
1341785853,6468,82.0800018310546900,4.9721999168396000,34.9847984313964840,348.9254150390625000,759.8297119140625000,4.9422259330749510,34.1074790954589840,85,3,52,133,64,2147244169,2147563016,2147581462,2147362669,847,0,-12,63445
1341785914,6466,79.0899963378906200,5.0156998634338380,34.9845008850097660,348.5932006835937500,759.1472778320312000,4.9660987854003910,34.1051902770996100,41,3,55,127,66,2147245517,2147558019,2147585887,2147364164,244,0,-12,52547
1341785977,6468,76.0000000000000000,5.0486001968383790,34.9859008789062500,348.1978149414062500,757.7620849609375000,5.0145320892333980,34.0910987854003900,16,3,56,134,66,2147245873,2147559761,2147590015,2147366554,135,0,-12,49704
1341786038,6468,73.0400009155273400,5.0560998916625980,34.9863014221191400,348.5118103027344000,757.4254150390625000,5.0263018608093260,34.0738105773925800,16,3,58,132,66,2147243519,2147562930,2147595409,2147367345,3450,0,-12,47047
1341786101,6465,69.9000015258789000,5.0620999336242680,34.9860992431640600,348.6083068847656000,757.2329711914062000,5.0330262184143070,34.0667304992675800,15,3,59,135,64,2147243611,2147564676,2147597073,2147370376,3208,0,-12,32444
1341786162,6468,66.9000015258789000,5.0647001266479490,34.9864997863769500,348.6166076660156000,757.1187744140625000,5.0370202064514160,34.0643692016601560,16,3,60,134,66,2147241850,2147570417,2147608543,2147371716,2967,0,-12,12848
1341786225,6468,63.9599990844726560,5.0756001472473145,34.9869995117187500,348.6249084472656000,756.8308715820312000,5.0470790863037110,34.0581703186035160,16,3,60,172,64,2147248201,2147571478,2147617745,2147373832,2610,0,-12,49800
1341786286,6467,61.2400016784668000,5.0833997726440430,34.9868011474609400,348.5595092773437500,756.5922241210938000,5.0554180145263670,34.0557899475097660,16,3,62,134,65,2147245522,2147573188,2147623578,2147375140,2262,0,-12,29652
1341786349,6465,58.6199989318847660,5.1276001930236820,34.9874000549316400,348.4408874511719000,755.5167846679688000,5.0929808616638180,34.0389709472656250,15,3,65,145,66,2147244794,2147574833,2147634687,2147376840,2166,0,-12,63223
1341786410,6468,56.2599983215332000,5.1626000404357910,34.9882011413574200,348.3836975097656000,754.5377807617188000,5.1271629333496090,34.0217208862304700,15,3,70,137,64,2147248250,2147577649,2147640982,2147374688,2003,0,-12,35376
1341786497,6468,52.5000000000000000,5.1852002143859860,34.9898986816406250,348.4143981933594000,753.7493896484375000,5.1546821594238280,34.0049095153808600,16,3,75,180,66,2147253288,2147581101,2147650107,2147380054,1378,0,-12,1171
1341786558,6465,49.0800018310546900,5.2097997665405270,34.9905014038085940,348.5327148437500000,753.0310058593750000,5.1797471046447750,33.9871406555175800,14,3,79,145,66,2147254431,2147586307,2147658028,2147382445,1190,0,-12,25282
1341786621,6467,45.7200012207031250,5.2456002235412600,34.9916992187500000,348.6164855957031000,752.0767822265625000,5.2130260467529300,33.9655990600585940,16,3,84,159,66,2147257092,2147589763,2147663803,2147386345,1079,0,-12,56727
1341786682,6470,42.7200012207031250,5.3182997703552250,34.9930992126464840,348.8598022460937500,750.0223999023438000,5.2846360206604000,33.9173698425293000,17,3,104,150,66,2147259725,2147590591,2147668251,2147390481,872,0,-12,51362
1341786745,6505,39.9700012207031250,5.4390997886657715,34.9973983764648440,349.6221923828125000,747.1837158203125000,5.3834800720214840,33.8362693786621100,51,3,132,170,66,2147257572,2147590943,2147668319,2147391387,3563,0,-12,60542
1341786806,6469,37.4099998474121100,5.5156002044677730,34.9994010925293000,350.8178100585937500,744.5880737304688000,5.4737529754638670,33.7460594177246100,19,3,153,175,66,2147259286,2147590925,2147669974,2147391857,3378,0,-12,34193
1341786869,6469,34.6300010681152340,5.6652002334594730,35.0012016296386700,352.4161987304687500,740.1218261718750000,5.6288590431213380,33.6067810058593750,29,3,223,242,65,2147266801,2147594230,2147681019,2147399427,118,0,-12,63654
1341786930,6506,31.6000003814697270,5.7435998916625980,35.0027008056640600,353.9367065429687500,737.8220825195312000,5.7086110115051270,33.5123786926269500,39,3,264,270,65,2147276315,2147610243,2147711542,2147413353,3521,0,-10,27749
1341786993,6469,27.7700004577636720,6.2565999031066895,34.9936981201171900,352.4236145019531000,724.4335937500000000,6.1714119911193850,33.3097991943359400,55,3,496,469,65,2147307811,2147647478,2147783638,2147439990,3156,0,-12,57992
1341787054,6466,24.2800006866455080,7.0075998306274410,35.0189018249511700,356.1156921386719000,695.4083251953125000,7.1661820411682130,32.6582107543945300,88,3,628,651,66,2147357087,2147701453,2147881041,2147480890,127,0,-12,48240
1341787117,6469,22.3700008392334000,8.4078998565673830,35.0042991638183600,360.5480957031250000,664.3895874023438000,8.2169857025146480,31.9739494323730470,94,3,795,633,64,2147386843,2147742673,2147946408,2147507104,994,0,-12,32752
1341787268,6469,18.9099998474121100,8.8675003051757810,35.0541000366210940,369.8317871093750000,643.6024780273438000,8.9144897460937500,31.3358707427978500,102,3,829,677,64,2147554793,2147940301,2148240273,2147629608,1523,0,-12,46402
1341787329,6470,16.3400001525878900,9.5853996276855470,35.0458984375000000,369.0398864746094000,622.6619262695312000,9.6120223999023440,31.0178508758544920,100,3,856,673,64,2147713064,2148113110,2148481914,2147738409,1631,1,-12,25410
1341787408,6470,13.7299995422363280,10.1345996856689450,35.0359992980957000,369.0380859375000000,608.3684082031250000,10.0853204727172850,30.7892704010009770,95,3,865,657,64,2148017965,2148447359,2148895204,2147928214,2201,0,-11,62749
1341787480,6470,11.0000000000000000,10.5600996017456050,35.0341987609863300,366.3940124511719000,594.0518188476562000,10.5571804046630860,30.6440296173095700,98,3,847,648,64,2148517216,2148992452,2149516063,2148237512,1991,0,-11,4238
1341787559,6470,7.4699997901916500,10.8722000122070310,35.0457992553710940,363.0956115722656000,584.4680786132812000,10.8718595504760740,30.5956707000732420,92,3,806,630,62,2149641238,2150174340,2150754322,2148951793,2529,2,-7,63083
1341787623,6467,4.0199999809265140,10.9510002136230470,35.0471000671386700,362.8721008300781000,582.3231201171875000,10.9421596527099610,30.5692996978759770,94,3,738,630,61,2151281819,2151844900,2152261984,2150091715,2428,6,-25,60532
1341787673,6470,0.5000000000000000,0.0000000000000000,0.0000000000000000,362.6684875488281000,581.4860839843750000,10.9695901870727540,30.5626201629638670,110,3,731,610,62,2152242962,2152785197,2153050381,2150916196,1961,-3,-3,45800
1341787709,6471,0.7900000214576721,0.0000000000000000,0.0000000000000000,362.6434936523437500,581.1437988281250000,10.9807901382446290,30.5581893920898440,90,3,719,579,62,2154356008,2155164881,2154999990,2152757064,1645,-16,-8,24363
